EZY234 EDDL-LIMC

Flight info

Callsign EZY234
Flight time 1h 36m
Altitude 23000
Route KUMIK5Z KUMIK L603 BOMBI/N0446F270 N850 UBENO/N0420F230 N850 RINEX/N0461F330 DCT KRH/N0462F320 DCT NATOR/N0461F330 DCT TRA N850 DEGAD Z424 BASGO/N0465F290 Z424 AKASU/N0397F190 Z424 RIXUV
Aircraft A320/M-SDE3FGHIRWY/LB1

Departure

Time 2026-05-05 20:01
Airport Düsseldorf Airport (EDDL)

Arrival

Time 2026-05-05 21:37
Airport Milan Malpensa International Airport (LIMC)
Time Latitude Longitude Altitude Speed Heading
2026-05-05 19:22 51.28150 6.76557 126 ft 0 kts 97°
2026-05-05 19:46 51.28151 6.76537 120 ft 4 kts 99°
2026-05-05 19:47 51.28154 6.76496 124 ft 2 kts 88°
2026-05-05 19:47 51.28153 6.76461 124 ft 4 kts 74°
2026-05-05 19:47 51.28141 6.76428 125 ft 4 kts 27°
2026-05-05 19:47 51.28131 6.76421 127 ft 0 kts
2026-05-05 19:51 51.28161 6.76427 125 ft 10 kts
2026-05-05 19:51 51.28237 6.76451 124 ft 12 kts 27°
2026-05-05 19:51 51.28315 6.76463 124 ft 14 kts 305°
2026-05-05 19:52 51.28271 6.76314 123 ft 16 kts 230°
2026-05-05 19:52 51.28205 6.76179 124 ft 15 kts 232°
2026-05-05 19:52 51.28138 6.76038 126 ft 16 kts 233°
2026-05-05 19:52 51.28068 6.75889 125 ft 18 kts 233°
2026-05-05 19:53 51.27991 6.75729 124 ft 17 kts 232°
2026-05-05 19:53 51.27970 6.75685 122 ft 1 kts 232°
2026-05-05 19:53 51.27963 6.75671 121 ft 2 kts 233°
2026-05-05 19:53 51.27950 6.75637 123 ft 5 kts 239°
2026-05-05 19:54 51.27948 6.75580 120 ft 2 kts 305°
2026-05-05 19:56 51.27948 6.75579 123 ft 0 kts 306°
2026-05-05 19:57 51.27951 6.75575 118 ft 0 kts 309°
2026-05-05 19:57 51.27951 6.75574 118 ft 0 kts 309°
2026-05-05 19:58 51.27983 6.75537 119 ft 13 kts 332°
2026-05-05 19:58 51.28077 6.75483 120 ft 9 kts 348°
2026-05-05 19:58 51.28118 6.75533 117 ft 7 kts 49°
2026-05-05 19:59 51.28124 6.75546 119 ft 0 kts 52°
2026-05-05 20:00 51.28124 6.75547 119 ft 0 kts 52°
2026-05-05 20:00 51.28239 6.75784 123 ft 69 kts 52°
2026-05-05 20:00 51.28687 6.76719 128 ft 139 kts 52°
2026-05-05 20:00 51.29344 6.78088 582 ft 158 kts 50°
2026-05-05 20:01 51.30000 6.79486 1430 ft 160 kts 52°
2026-05-05 20:01 51.30719 6.81004 1931 ft 181 kts 52°
2026-05-05 20:01 51.31530 6.82721 2401 ft 207 kts 53°
2026-05-05 20:01 51.32457 6.84690 2959 ft 233 kts 53°
2026-05-05 20:02 51.33474 6.86849 3561 ft 258 kts 54°
2026-05-05 20:02 51.34553 6.89219 4500 ft 267 kts 57°
2026-05-05 20:02 51.35439 6.91903 4837 ft 273 kts 76°
2026-05-05 20:02 51.35394 6.94862 5023 ft 268 kts 105°
2026-05-05 20:03 51.34929 6.97776 5013 ft 272 kts 104°
2026-05-05 20:03 51.34502 7.00804 5675 ft 283 kts 103°
2026-05-05 20:03 51.34150 7.03823 6978 ft 277 kts 101°
2026-05-05 20:03 51.33832 7.06874 8095 ft 279 kts 100°
2026-05-05 20:04 51.33523 7.09969 9153 ft 283 kts 100°
2026-05-05 20:04 51.33212 7.13099 10117 ft 290 kts 100°
2026-05-05 20:04 51.32883 7.16423 10565 ft 314 kts 100°
2026-05-05 20:04 51.32549 7.19952 11229 ft 327 kts 99°
2026-05-05 20:05 51.32263 7.23564 12020 ft 335 kts 98°
2026-05-05 20:05 51.31995 7.27319 12885 ft 342 kts 98°
2026-05-05 20:05 51.31731 7.31147 13728 ft 348 kts 98°
2026-05-05 20:05 51.31424 7.35022 14479 ft 352 kts 103°
2026-05-05 20:06 51.30718 7.38727 15236 ft 354 kts 115°
2026-05-05 20:06 51.29495 7.42154 16003 ft 356 kts 128°
2026-05-05 20:06 51.27915 7.45230 16783 ft 359 kts 131°
2026-05-05 20:06 51.26306 7.48309 17567 ft 363 kts 131°
2026-05-05 20:07 51.24698 7.51407 18328 ft 367 kts 131°
2026-05-05 20:07 51.23068 7.54558 19015 ft 371 kts 131°
2026-05-05 20:07 51.21416 7.57746 19706 ft 374 kts 131°
2026-05-05 20:07 51.19747 7.60959 20408 ft 377 kts 131°
2026-05-05 20:08 51.18062 7.64202 21049 ft 380 kts 131°
2026-05-05 20:08 51.16322 7.67342 21662 ft 383 kts 138°
2026-05-05 20:08 51.14268 7.70054 22294 ft 385 kts 144°
2026-05-05 20:08 51.12138 7.72673 22761 ft 387 kts 144°
2026-05-05 20:09 51.10003 7.75285 22876 ft 381 kts 144°
2026-05-05 20:09 51.07949 7.77798 22881 ft 363 kts 144°
2026-05-05 20:09 51.05969 7.80217 22873 ft 355 kts 145°
2026-05-05 20:09 51.04034 7.82575 22876 ft 353 kts 145°
2026-05-05 20:10 51.02081 7.84954 22881 ft 358 kts 145°
2026-05-05 20:10 51.00038 7.87437 22879 ft 380 kts 144°
2026-05-05 20:10 50.97879 7.90058 22879 ft 400 kts 144°
2026-05-05 20:10 50.96392 7.91864 22877 ft 412 kts 144°
2026-05-05 20:11 50.93290 7.95631 22877 ft 432 kts 144°
2026-05-05 20:11 50.90885 7.98552 22877 ft 438 kts 144°
2026-05-05 20:11 50.89239 8.00549 22876 ft 444 kts 144°
2026-05-05 20:11 50.86791 8.03516 22874 ft 451 kts 144°
2026-05-05 20:12 50.84339 8.06626 22873 ft 454 kts 139°
2026-05-05 20:12 50.82308 8.10487 22876 ft 459 kts 126°
2026-05-05 20:12 50.80535 8.14693 22873 ft 459 kts 126°
2026-05-05 20:12 50.78764 8.18904 22873 ft 459 kts 126°
2026-05-05 20:13 50.76993 8.23113 22873 ft 459 kts 126°
2026-05-05 20:13 50.75247 8.27258 22876 ft 459 kts 126°
2026-05-05 20:13 50.73471 8.31466 22876 ft 459 kts 126°
2026-05-05 20:13 50.71699 8.35658 22878 ft 459 kts 126°
2026-05-05 20:14 50.69744 8.39626 22875 ft 456 kts 137°
2026-05-05 20:14 50.67274 8.42686 22878 ft 451 kts 152°
2026-05-05 20:14 50.64507 8.45058 22867 ft 450 kts 154°
2026-05-05 20:14 50.61773 8.47358 22863 ft 451 kts 154°
2026-05-05 20:15 50.59003 8.49686 22866 ft 451 kts 154°
2026-05-05 20:15 50.56225 8.52024 22852 ft 451 kts 154°
2026-05-05 20:15 50.53453 8.54352 22865 ft 451 kts 154°
2026-05-05 20:15 50.50676 8.56680 22874 ft 451 kts 154°
2026-05-05 20:16 50.47948 8.58968 22880 ft 451 kts 154°
2026-05-05 20:16 50.45172 8.61272 22880 ft 450 kts 156°
2026-05-05 20:16 50.42236 8.62959 22880 ft 447 kts 165°
2026-05-05 20:16 50.39254 8.64380 22881 ft 447 kts 165°
2026-05-05 20:17 50.36267 8.65784 22879 ft 447 kts 165°
2026-05-05 20:17 50.33311 8.67163 22879 ft 447 kts 165°
2026-05-05 20:17 50.30312 8.68555 22877 ft 447 kts 165°
2026-05-05 20:17 50.27319 8.69947 22875 ft 448 kts 165°
2026-05-05 20:18 50.24362 8.71323 22877 ft 448 kts 165°
2026-05-05 20:18 50.21372 8.72714 22879 ft 448 kts 165°
2026-05-05 20:18 50.18386 8.74103 22874 ft 448 kts 165°
2026-05-05 20:18 50.15398 8.75496 22874 ft 448 kts 165°
2026-05-05 20:19 50.12403 8.76894 22871 ft 448 kts 165°
2026-05-05 20:19 50.09444 8.78275 22873 ft 448 kts 165°
2026-05-05 20:19 50.06409 8.79346 22862 ft 446 kts 175°
2026-05-05 20:19 50.03314 8.79200 22860 ft 444 kts 190°
2026-05-05 20:20 50.00290 8.78197 22861 ft 444 kts 193°
2026-05-05 20:20 49.97270 8.77144 22862 ft 445 kts 193°
2026-05-05 20:20 49.94245 8.76085 22865 ft 445 kts 193°
2026-05-05 20:20 49.91245 8.75037 22874 ft 445 kts 193°
2026-05-05 20:21 49.88218 8.73983 22877 ft 445 kts 193°
2026-05-05 20:21 49.85192 8.72935 22876 ft 445 kts 193°
2026-05-05 20:21 49.82161 8.71891 22869 ft 446 kts 193°
2026-05-05 20:21 49.79129 8.70858 22865 ft 446 kts 193°
2026-05-05 20:22 49.76123 8.69838 22867 ft 447 kts 193°
2026-05-05 20:22 49.73067 8.68941 22866 ft 447 kts 186°
2026-05-05 20:22 49.69964 8.68513 22871 ft 447 kts 185°
2026-05-05 20:22 49.66856 8.68091 22875 ft 447 kts 185°
2026-05-05 20:23 49.63747 8.67669 22872 ft 448 kts 185°
2026-05-05 20:23 49.60638 8.67247 22877 ft 448 kts 185°
2026-05-05 20:23 49.57570 8.66834 22881 ft 448 kts 185°
2026-05-05 20:23 49.54456 8.66420 22884 ft 448 kts 185°
2026-05-05 20:24 49.51343 8.66005 22887 ft 448 kts 185°
2026-05-05 20:24 49.48226 8.65586 22885 ft 448 kts 185°
2026-05-05 20:24 49.45121 8.65171 22887 ft 448 kts 185°
2026-05-05 20:24 49.42012 8.64759 22893 ft 447 kts 185°
2026-05-05 20:25 49.38945 8.64356 22893 ft 447 kts 185°
2026-05-05 20:25 49.35834 8.63946 22895 ft 447 kts 185°
2026-05-05 20:25 49.32725 8.63530 22893 ft 447 kts 185°
2026-05-05 20:25 49.29619 8.63091 22895 ft 448 kts 186°
2026-05-05 20:26 49.26513 8.62621 22893 ft 448 kts 186°
2026-05-05 20:26 49.23445 8.62138 22884 ft 447 kts 186°
2026-05-05 20:26 49.20343 8.61644 22874 ft 447 kts 186°
2026-05-05 20:26 49.17250 8.61155 22881 ft 446 kts 186°
2026-05-05 20:27 49.14146 8.60677 22885 ft 445 kts 186°
2026-05-05 20:27 49.11101 8.60215 22889 ft 444 kts 186°
2026-05-05 20:27 49.08019 8.59750 22889 ft 444 kts 186°
2026-05-05 20:27 49.04943 8.59283 22887 ft 444 kts 186°
2026-05-05 20:28 49.01863 8.58817 22887 ft 443 kts 186°
2026-05-05 20:28 48.98803 8.58265 22885 ft 443 kts 190°
2026-05-05 20:28 48.95778 8.57332 22891 ft 442 kts 192°
2026-05-05 20:28 48.92774 8.56365 22891 ft 442 kts 192°
2026-05-05 20:29 48.89807 8.55391 22891 ft 441 kts 192°
2026-05-05 20:29 48.86802 8.54397 22889 ft 441 kts 192°
2026-05-05 20:29 48.83800 8.53407 22879 ft 440 kts 192°
2026-05-05 20:29 48.80791 8.52424 22886 ft 440 kts 192°
2026-05-05 20:30 48.77835 8.51469 22885 ft 440 kts 192°
2026-05-05 20:30 48.74839 8.50510 22881 ft 439 kts 192°
2026-05-05 20:30 48.71840 8.49554 22885 ft 439 kts 192°
2026-05-05 20:30 48.68851 8.48598 22883 ft 438 kts 192°
2026-05-05 20:31 48.65864 8.47645 22880 ft 438 kts 192°
2026-05-05 20:31 48.62906 8.46699 22879 ft 438 kts 192°
2026-05-05 20:31 48.59902 8.45738 22867 ft 445 kts 192°
2026-05-05 20:31 48.56837 8.44758 22868 ft 449 kts 192°
2026-05-05 20:32 48.53775 8.43778 22868 ft 450 kts 192°
2026-05-05 20:32 48.50704 8.42797 22875 ft 450 kts 192°
2026-05-05 20:32 48.47628 8.41814 22874 ft 450 kts 192°
2026-05-05 20:32 48.44601 8.40845 22874 ft 450 kts 192°
2026-05-05 20:33 48.41527 8.39863 22874 ft 450 kts 192°
2026-05-05 20:33 48.38455 8.38889 22874 ft 450 kts 191°
2026-05-05 20:33 48.35376 8.37917 22874 ft 450 kts 191°
2026-05-05 20:33 48.32343 8.36962 22875 ft 450 kts 192°
2026-05-05 20:34 48.29243 8.35858 20593 ft 472 kts 196°
2026-05-05 20:34 48.26410 8.34389 22823 ft 415 kts 199°
2026-05-05 20:34 48.23617 8.33080 23048 ft 427 kts 194°
2026-05-05 20:34 48.20672 8.32212 22876 ft 441 kts 188°
2026-05-05 20:35 48.17587 8.31823 22878 ft 446 kts 177°
2026-05-05 20:35 48.14529 8.32692 22880 ft 449 kts 165°
2026-05-05 20:35 48.11494 8.33826 22879 ft 448 kts 169°
2026-05-05 20:35 48.08430 8.34669 22886 ft 447 kts 172°
2026-05-05 20:36 48.05380 8.35318 22885 ft 447 kts 173°
2026-05-05 20:36 48.02289 8.35903 22888 ft 447 kts 173°
2026-05-05 20:36 47.99194 8.36501 22889 ft 447 kts 173°
2026-05-05 20:36 47.96106 8.37149 22887 ft 447 kts 172°
2026-05-05 20:37 47.93031 8.37853 22885 ft 447 kts 172°
2026-05-05 20:37 47.90006 8.38586 22890 ft 446 kts 171°
2026-05-05 20:37 47.86935 8.39349 22896 ft 446 kts 171°
2026-05-05 20:37 47.83872 8.40109 22896 ft 446 kts 171°
2026-05-05 20:38 47.80808 8.40863 22894 ft 445 kts 171°
2026-05-05 20:38 47.77743 8.41609 22893 ft 445 kts 171°
2026-05-05 20:38 47.74680 8.42342 22889 ft 444 kts 171°
2026-05-05 20:38 47.71661 8.43058 22872 ft 445 kts 171°
2026-05-05 20:39 47.68600 8.43777 22876 ft 444 kts 172°
2026-05-05 20:39 47.65534 8.44379 22877 ft 444 kts 173°
2026-05-05 20:39 47.62446 8.44855 22878 ft 444 kts 174°
2026-05-05 20:39 47.59352 8.45260 22880 ft 445 kts 175°
2026-05-05 20:40 47.56305 8.45635 22882 ft 445 kts 175°
2026-05-05 20:40 47.53213 8.46026 22881 ft 445 kts 175°
2026-05-05 20:40 47.50116 8.46449 22882 ft 445 kts 174°
2026-05-05 20:40 47.47029 8.46896 22892 ft 445 kts 174°
2026-05-05 20:41 47.43934 8.47357 22895 ft 445 kts 174°
2026-05-05 20:41 47.40884 8.47816 22898 ft 445 kts 174°
2026-05-05 20:41 47.37799 8.48279 22902 ft 445 kts 174°
2026-05-05 20:41 47.34708 8.48739 22902 ft 445 kts 174°
2026-05-05 20:42 47.31617 8.49192 22678 ft 444 kts 176°
2026-05-05 20:42 47.28519 8.49594 22155 ft 440 kts 178°
2026-05-05 20:42 47.25453 8.49976 22311 ft 443 kts 175°
2026-05-05 20:42 47.22383 8.50421 22312 ft 443 kts 175°
2026-05-05 20:43 47.19309 8.50904 22313 ft 443 kts 174°
2026-05-05 20:43 47.16277 8.51389 22311 ft 443 kts 174°
2026-05-05 20:43 47.13205 8.51868 22315 ft 443 kts 174°
2026-05-05 20:43 47.10122 8.52333 22313 ft 443 kts 175°
2026-05-05 20:44 47.07052 8.52781 22317 ft 443 kts 175°
2026-05-05 20:44 47.03977 8.53223 22317 ft 443 kts 175°
2026-05-05 20:44 47.00907 8.53661 22321 ft 443 kts 175°
2026-05-05 20:44 46.97876 8.54091 22323 ft 442 kts 175°
2026-05-05 20:45 46.91734 8.54972 22333 ft 443 kts 175°
2026-05-05 20:45 46.88667 8.55411 22345 ft 442 kts 175°
2026-05-05 20:45 46.85597 8.55851 22349 ft 442 kts 175°
2026-05-05 20:46 46.82575 8.56285 22343 ft 441 kts 175°
2026-05-05 20:46 46.79516 8.56723 22360 ft 441 kts 175°
2026-05-05 20:46 46.76461 8.57159 22350 ft 441 kts 175°
2026-05-05 20:46 46.73404 8.57598 22375 ft 440 kts 175°
2026-05-05 20:47 46.70358 8.58034 22370 ft 440 kts 175°
2026-05-05 20:47 46.67304 8.58470 22375 ft 440 kts 175°
2026-05-05 20:47 46.64295 8.58901 22398 ft 440 kts 176°
2026-05-05 20:47 46.61246 8.59334 22393 ft 439 kts 176°
2026-05-05 20:48 46.58202 8.59763 22407 ft 440 kts 176°
2026-05-05 20:48 46.55155 8.60194 22417 ft 440 kts 175°
2026-05-05 20:48 46.52104 8.60625 22417 ft 440 kts 175°
2026-05-05 20:48 46.49054 8.61056 22416 ft 440 kts 176°
2026-05-05 20:49 46.46039 8.61405 22422 ft 439 kts 181°
2026-05-05 20:49 46.43029 8.60750 22425 ft 438 kts 197°
2026-05-05 20:49 46.40255 8.58900 22425 ft 439 kts 211°
2026-05-05 20:49 46.37694 8.56481 22427 ft 440 kts 212°
2026-05-05 20:50 46.35112 8.54106 22426 ft 440 kts 211°
2026-05-05 20:50 46.33384 8.52556 22431 ft 439 kts 211°
2026-05-05 20:50 46.29915 8.49522 22427 ft 438 kts 208°
2026-05-05 20:50 46.27061 8.47968 22429 ft 438 kts 192°
2026-05-05 20:51 46.24030 8.47655 22434 ft 439 kts 178°
2026-05-05 20:51 46.20982 8.48165 22437 ft 441 kts 174°
2026-05-05 20:51 46.17971 8.48669 22439 ft 441 kts 175°
2026-05-05 20:51 46.14916 8.49110 22440 ft 440 kts 176°
2026-05-05 20:52 46.11870 8.49540 22437 ft 440 kts 174°
2026-05-05 20:52 46.08902 8.50672 22436 ft 442 kts 163°
2026-05-05 20:52 46.05986 8.52161 22435 ft 443 kts 162°
2026-05-05 20:52 46.03088 8.53704 22434 ft 444 kts 162°
2026-05-05 20:53 46.00234 8.55263 22432 ft 444 kts 161°
2026-05-05 20:53 45.97343 8.56853 22429 ft 444 kts 162°
2026-05-05 20:53 45.94443 8.58439 22428 ft 444 kts 162°
2026-05-05 20:53 45.91548 8.60008 22432 ft 444 kts 162°
2026-05-05 20:54 45.88679 8.61535 22421 ft 444 kts 163°
2026-05-05 20:54 45.85830 8.62957 22425 ft 421 kts 164°
2026-05-05 20:54 45.83129 8.64226 22424 ft 396 kts 166°
2026-05-05 20:54 45.80517 8.65010 22427 ft 369 kts 179°
2026-05-05 20:55 45.78035 8.64899 22424 ft 346 kts 189°
2026-05-05 20:55 45.75743 8.64194 22425 ft 327 kts 199°
2026-05-05 20:55 45.73732 8.62986 22422 ft 309 kts 209°
2026-05-05 20:55 45.72005 8.61284 22420 ft 294 kts 220°
2026-05-05 20:56 45.70619 8.59205 22424 ft 284 kts 230°
2026-05-05 20:56 45.69567 8.56818 22427 ft 283 kts 240°
2026-05-05 20:56 45.68858 8.54212 22425 ft 286 kts 250°
2026-05-05 20:56 45.68496 8.51395 22431 ft 291 kts 261°
2026-05-05 20:57 45.68515 8.48480 22423 ft 296 kts 271°
2026-05-05 20:57 45.68942 8.45570 22427 ft 302 kts 282°
2026-05-05 20:57 45.69795 8.42789 22414 ft 308 kts 294°
2026-05-05 20:57 45.71054 8.40268 22421 ft 315 kts 306°
2026-05-05 20:58 45.72095 8.38803 22423 ft 319 kts 314°
2026-05-05 20:58 45.74466 8.36241 22422 ft 323 kts 320°
2026-05-05 20:58 45.76332 8.34429 22422 ft 323 kts 320°
2026-05-05 20:58 45.77564 8.33223 22425 ft 323 kts 320°
2026-05-05 20:59 45.79400 8.31357 22427 ft 322 kts 318°
2026-05-05 20:59 45.81254 8.29530 22425 ft 325 kts 326°
2026-05-05 20:59 45.83340 8.28205 22436 ft 331 kts 339°
2026-05-05 20:59 45.85607 8.27510 22426 ft 334 kts 351°
2026-05-05 21:00 45.87919 8.27475 22135 ft 338 kts
2026-05-05 21:00 45.90230 8.28151 21770 ft 339 kts 17°
2026-05-05 21:00 45.92385 8.29502 21397 ft 337 kts 31°
2026-05-05 21:00 45.94291 8.31450 21071 ft 334 kts 44°
2026-05-05 21:01 45.95842 8.33872 21016 ft 327 kts 56°
2026-05-05 21:01 45.97020 8.36654 21032 ft 325 kts 68°
2026-05-05 21:01 45.97780 8.39695 21032 ft 320 kts 81°
2026-05-05 21:01 45.98097 8.42840 21031 ft 316 kts 93°
2026-05-05 21:02 45.97992 8.45928 21029 ft 311 kts 104°
2026-05-05 21:02 45.97487 8.48913 21031 ft 306 kts 115°
2026-05-05 21:02 45.96613 8.51678 21029 ft 300 kts 126°
2026-05-05 21:02 45.95431 8.54109 21029 ft 295 kts 136°
2026-05-05 21:03 45.94003 8.56206 21028 ft 291 kts 143°
2026-05-05 21:03 45.92464 8.58100 21027 ft 290 kts 146°
2026-05-05 21:03 45.90897 8.59877 21027 ft 289 kts 147°
2026-05-05 21:03 45.89295 8.61641 21027 ft 290 kts 147°
2026-05-05 21:04 45.87697 8.63417 21028 ft 290 kts 147°
2026-05-05 21:04 45.86124 8.65197 21026 ft 290 kts 146°
2026-05-05 21:04 45.84542 8.67009 21009 ft 291 kts 146°
2026-05-05 21:04 45.82960 8.68834 20788 ft 292 kts 147°
2026-05-05 21:05 45.81366 8.70677 20384 ft 294 kts 147°
2026-05-05 21:05 45.79769 8.72522 19989 ft 295 kts 146°
2026-05-05 21:05 45.78184 8.74354 19602 ft 296 kts 146°
2026-05-05 21:05 45.76569 8.76185 19216 ft 295 kts 150°
2026-05-05 21:06 45.74806 8.77657 18834 ft 293 kts 156°
2026-05-05 21:06 45.73000 8.79048 18455 ft 295 kts 156°
2026-05-05 21:06 45.71205 8.80430 18048 ft 297 kts 156°
2026-05-05 21:06 45.69386 8.81829 17638 ft 297 kts 156°
2026-05-05 21:07 45.67555 8.83234 17202 ft 298 kts 156°
2026-05-05 21:07 45.65723 8.84639 16788 ft 299 kts 156°
2026-05-05 21:07 45.63885 8.86050 16374 ft 299 kts 156°
2026-05-05 21:07 45.62052 8.87457 16041 ft 297 kts 156°
2026-05-05 21:08 45.60280 8.88821 16020 ft 285 kts 156°
2026-05-05 21:08 45.58683 8.90438 16022 ft 280 kts 139°
2026-05-05 21:08 45.57599 8.92727 16025 ft 286 kts 117°
2026-05-05 21:08 45.57178 8.95526 16025 ft 294 kts 94°
2026-05-05 21:09 45.57553 8.98416 16022 ft 301 kts 69°
2026-05-05 21:09 45.58703 9.00917 15998 ft 305 kts 44°
2026-05-05 21:09 45.60455 9.02629 16002 ft 307 kts 25°
2026-05-05 21:09 45.62404 9.03950 15659 ft 311 kts 23°
2026-05-05 21:10 45.64377 9.05186 15291 ft 314 kts 22°
2026-05-05 21:10 45.66444 9.06174 14924 ft 312 kts
2026-05-05 21:10 45.68583 9.05974 14560 ft 307 kts 339°
2026-05-05 21:10 45.70451 9.04584 14205 ft 301 kts 315°
2026-05-05 21:11 45.71740 9.02289 13862 ft 294 kts 292°
2026-05-05 21:11 45.72276 8.99517 13462 ft 287 kts 269°
2026-05-05 21:11 45.72033 8.96769 13070 ft 281 kts 248°
2026-05-05 21:11 45.71083 8.94365 12689 ft 278 kts 227°
2026-05-05 21:12 45.69572 8.92642 12310 ft 279 kts 208°
2026-05-05 21:12 45.67827 8.91408 11911 ft 280 kts 205°
2026-05-05 21:12 45.66044 8.90276 11523 ft 280 kts 203°
2026-05-05 21:12 45.64258 8.89187 11148 ft 278 kts 203°
2026-05-05 21:13 45.62524 8.88132 11005 ft 268 kts 203°
2026-05-05 21:13 45.60818 8.87284 11009 ft 253 kts 190°
2026-05-05 21:13 45.59082 8.87397 11014 ft 250 kts 167°
2026-05-05 21:13 45.57547 8.88509 11015 ft 254 kts 143°
2026-05-05 21:14 45.56448 8.90519 11015 ft 261 kts 117°
2026-05-05 21:14 45.56065 8.93077 11026 ft 269 kts 90°
2026-05-05 21:14 45.56520 8.95635 11024 ft 274 kts 63°
2026-05-05 21:14 45.57783 8.97697 11023 ft 275 kts 33°
2026-05-05 21:15 45.59467 8.98927 11022 ft 276 kts 23°
2026-05-05 21:15 45.61225 9.00040 11021 ft 276 kts 22°
2026-05-05 21:15 45.62994 9.01136 11023 ft 276 kts 23°
2026-05-05 21:15 45.64760 9.02229 11023 ft 277 kts 23°
2026-05-05 21:16 45.66603 9.02990 11016 ft 276 kts
2026-05-05 21:16 45.68444 9.02564 11020 ft 270 kts 333°
2026-05-05 21:16 45.69936 9.01024 11020 ft 263 kts 306°
2026-05-05 21:16 45.70779 8.98769 11012 ft 255 kts 280°
2026-05-05 21:17 45.70862 8.96283 11021 ft 249 kts 256°
2026-05-05 21:17 45.70229 8.94025 11025 ft 244 kts 233°
2026-05-05 21:17 45.69018 8.92352 11028 ft 242 kts 211°
2026-05-05 21:17 45.67535 8.91262 11026 ft 243 kts 205°
2026-05-05 21:18 45.65992 8.90275 11027 ft 243 kts 203°
2026-05-05 21:18 45.64438 8.89321 11027 ft 243 kts 203°
2026-05-05 21:18 45.62876 8.88363 11029 ft 243 kts 203°
2026-05-05 21:18 45.61307 8.87454 11026 ft 244 kts 196°
2026-05-05 21:19 45.59616 8.87395 11028 ft 248 kts 168°
2026-05-05 21:19 45.58102 8.88533 11029 ft 255 kts 140°
2026-05-05 21:19 45.57145 8.90683 11027 ft 263 kts 109°
2026-05-05 21:19 45.57094 8.93307 11025 ft 271 kts 76°
2026-05-05 21:20 45.58042 8.95623 11025 ft 275 kts 42°
2026-05-05 21:20 45.59718 8.96894 11023 ft 274 kts 14°
2026-05-05 21:20 45.61532 8.97677 10929 ft 278 kts 19°
2026-05-05 21:20 45.63321 8.98768 10560 ft 280 kts 25°
2026-05-05 21:21 45.65081 8.99986 10201 ft 281 kts 25°
2026-05-05 21:21 45.66970 9.00650 9833 ft 283 kts 356°
2026-05-05 21:21 45.68803 8.99779 9426 ft 277 kts 321°
2026-05-05 21:21 45.69924 8.97688 9065 ft 266 kts 284°
2026-05-05 21:22 45.69987 8.95181 9015 ft 247 kts 252°
2026-05-05 21:22 45.69238 8.93025 9030 ft 242 kts 227°
2026-05-05 21:22 45.67919 8.91588 9029 ft 238 kts 205°
2026-05-05 21:22 45.66408 8.90584 9029 ft 239 kts 203°
2026-05-05 21:23 45.64883 8.89625 9029 ft 239 kts 202°
2026-05-05 21:23 45.63339 8.88666 8742 ft 242 kts 202°
2026-05-05 21:23 45.61765 8.87943 8356 ft 241 kts 186°
2026-05-05 21:23 45.60112 8.88216 7974 ft 241 kts 162°
2026-05-05 21:24 45.58501 8.88869 7590 ft 239 kts 168°
2026-05-05 21:24 45.56863 8.89307 7215 ft 238 kts 170°
2026-05-05 21:24 45.55225 8.89682 6840 ft 237 kts 170°
2026-05-05 21:24 45.53614 8.90050 6484 ft 236 kts 169°
2026-05-05 21:25 45.51992 8.90436 6112 ft 236 kts 169°
2026-05-05 21:25 45.50413 8.90830 6027 ft 222 kts 168°
2026-05-05 21:25 45.48938 8.91210 6029 ft 210 kts 168°
2026-05-05 21:25 45.47503 8.91589 6030 ft 209 kts 168°
2026-05-05 21:26 45.46070 8.91973 6031 ft 209 kts 168°
2026-05-05 21:26 45.44639 8.92357 6029 ft 210 kts 168°
2026-05-05 21:26 45.43202 8.92743 6028 ft 209 kts 168°
2026-05-05 21:26 45.41787 8.93125 6044 ft 211 kts 169°
2026-05-05 21:27 45.40331 8.93520 6043 ft 214 kts 169°
2026-05-05 21:27 45.38865 8.93919 6043 ft 214 kts 169°
2026-05-05 21:27 45.37403 8.94315 6041 ft 213 kts 170°
2026-05-05 21:27 45.35944 8.94711 6042 ft 213 kts 170°
2026-05-05 21:28 45.34486 8.95107 6042 ft 212 kts 170°
2026-05-05 21:28 45.33042 8.95344 6037 ft 211 kts 188°
2026-05-05 21:28 45.31688 8.94545 5799 ft 213 kts 220°
2026-05-05 21:28 45.30823 8.92843 5513 ft 214 kts 240°
2026-05-05 21:29 45.30176 8.90962 5217 ft 214 kts 243°
2026-05-05 21:29 45.29552 8.89031 4918 ft 215 kts 243°
2026-05-05 21:29 45.29076 8.87009 4610 ft 219 kts 264°
2026-05-05 21:29 45.29374 8.84892 4297 ft 222 kts 295°
2026-05-05 21:30 45.30281 8.83147 4084 ft 219 kts 319°
2026-05-05 21:30 45.31572 8.82055 4057 ft 220 kts 342°
2026-05-05 21:30 45.33054 8.81582 4064 ft 217 kts 349°
2026-05-05 21:30 45.34543 8.81175 4056 ft 217 kts 349°
2026-05-05 21:31 45.36027 8.80767 4057 ft 215 kts 349°
2026-05-05 21:31 45.37471 8.80372 4050 ft 206 kts 349°
2026-05-05 21:31 45.38843 8.79996 4049 ft 195 kts 351°
2026-05-05 21:31 45.40146 8.79640 4059 ft 191 kts 350°
2026-05-05 21:32 45.41445 8.79285 4055 ft 188 kts 349°
2026-05-05 21:32 45.42728 8.78933 4064 ft 186 kts 349°
2026-05-05 21:32 45.44001 8.78584 4030 ft 187 kts 352°
2026-05-05 21:32 45.45275 8.78235 3947 ft 188 kts 352°
2026-05-05 21:33 45.46567 8.77881 3741 ft 189 kts 351°
2026-05-05 21:33 45.47871 8.77523 3500 ft 191 kts 351°
2026-05-05 21:33 45.49186 8.77162 3253 ft 194 kts 351°
2026-05-05 21:33 45.50530 8.76792 2985 ft 199 kts 351°
2026-05-05 21:34 45.51888 8.76419 2706 ft 199 kts 351°
2026-05-05 21:34 45.53210 8.76054 2464 ft 186 kts 352°
2026-05-05 21:34 45.54447 8.75712 2217 ft 174 kts 352°
2026-05-05 21:34 45.55591 8.75397 2001 ft 158 kts 351°
2026-05-05 21:35 45.56621 8.75135 1797 ft 144 kts 354°
2026-05-05 21:35 45.57574 8.74866 1535 ft 140 kts 353°
2026-05-05 21:35 45.58490 8.74604 1425 ft 128 kts 353°
2026-05-05 21:35 45.59361 8.74367 1180 ft 126 kts 354°
2026-05-05 21:36 45.60211 8.74134 1034 ft 123 kts 350°
2026-05-05 21:36 45.61051 8.73904 901 ft 123 kts 352°
2026-05-05 21:36 45.61886 8.73668 734 ft 122 kts 350°
2026-05-05 21:36 45.62636 8.73475 731 ft 91 kts 349°
2026-05-05 21:37 45.63088 8.73348 733 ft 41 kts 349°
2026-05-05 21:37 45.63206 8.73311 735 ft 1 kts 346°
2026-05-05 21:37 45.63278 8.73286 739 ft 20 kts 347°
2026-05-05 21:37 45.63456 8.73220 745 ft 28 kts 341°
2026-05-05 21:38 45.63639 8.73148 748 ft 26 kts 334°
2026-05-05 21:38 45.63767 8.73002 749 ft 19 kts 311°
2026-05-05 21:38 45.63830 8.72890 748 ft 0 kts 305°
2026-05-05 21:39 45.63844 8.72862 750 ft 9 kts 307°
2026-05-05 21:39 45.63916 8.72797 753 ft 14 kts 351°
2026-05-05 21:39 45.63954 8.72787 752 ft 0 kts 347°
2026-05-05 21:40 45.63972 8.72781 753 ft 0 kts 347°
2026-05-05 21:40 45.63978 8.72779 754 ft 1 kts 347°
2026-05-05 21:40 45.63979 8.72779 754 ft 0 kts 347°
2026-05-05 21:42 45.63999 8.72773 754 ft 8 kts 348°
2026-05-05 21:42 45.64070 8.72752 757 ft 11 kts 348°
2026-05-05 21:43 45.64153 8.72727 759 ft 13 kts 348°
2026-05-05 21:43 45.64251 8.72698 762 ft 15 kts 348°
2026-05-05 21:43 45.64364 8.72673 765 ft 17 kts 353°
2026-05-05 21:43 45.64492 8.72652 767 ft 19 kts 353°
2026-05-05 21:44 45.64609 8.72621 770 ft 7 kts 348°
2026-05-05 21:44 45.64645 8.72611 770 ft 8 kts 348°
2026-05-05 21:44 45.64668 8.72605 770 ft 0 kts 348°
2026-05-05 21:45 45.64688 8.72586 771 ft 7 kts 316°
2026-05-05 21:45 45.64686 8.72548 771 ft 6 kts 233°
2026-05-05 21:45 45.64649 8.72523 770 ft 6 kts 204°
2026-05-05 21:45 45.64647 8.72504 770 ft 0 kts 268°